Flag for Germany Weather past 2 weeks in Weiden in der Oberpfalz, Bavaria, Germany

Now
64 °F

Overcast.


Feels Like: 64 °F
Forecast: 52 / 66 °F
Wind: 3 mph from West

Location: Weiden

Current Time: Apr 25, 2015 at 3:42:34 PM

Latest Report: Apr 25, 2015 at 3:00 PM


Visibility: 19 mi

Pressure: 29.83 "Hg

Humidity: 44%

Dew point: 41 °F

Location of Weiden in der OberpfalzLocation

Historic Weather in Weiden in der Oberpfalz — Graph

°F

Weiden in der Oberpfalz temperature yesterday

Maximum temperature yesterday: 63 °F (at 6:00 PM)
Minimum temperature yesterday: 40 °F (at 7:00 AM)
Average temperature yesterday: 52 °F

Past Weeks' High & Low Weather Summary

 TemperatureHumidityPressure
High72 °F (Apr 15, 5:00 PM)97% (Apr 23, 1:00 AM)30.48 "Hg (Apr 23, 1:00 AM)
Low28 °F (Apr 19, 6:00 AM)20% (Apr 21, 7:00 PM)29.83 "Hg (Apr 25, 2:00 PM)
Average50 °F62%30.17 "Hg
* Reported Apr 10 2:00 PM — Apr 25 2:00 PM, Weiden in der Oberpfalz, Weather by CustomWeather, © 2015

Note: Actual official high and low records may vary slightly from our data, if they occured in-between our weather recording intervals... More about our weather records

Advertising

Weiden in der Oberpfalz weather history for previous 24 hours

 ConditionsComfort  
Time TempWeatherWind HumidityBarometerVisibility
2:00 PM
Sat, Apr 25
65 °FOvercast.3 mph41%29.83 "Hg17 mi
1:00 PM63 °FPassing clouds.3 mph43%29.85 "Hg18 mi
12:00 PM61 °FScattered clouds.3 mph45%29.86 "Hg17 mi
11:00 AM60 °FSunny.5 mph49%29.87 "Hg19 mi
10:00 AM53 °FSunny.1 mph67%29.90 "Hg8 mi
9:00 AM46 °FSunny.1 mph75%29.93 "Hg9 mi
8:00 AM42 °FSunny.No wind81%29.94 "Hg7 mi
7:00 AM38 °FSunny.1 mph87%29.95 "Hg7 mi
6:00 AM38 °FSunny.1 mph90%29.95 "Hg7 mi
5:00 AM39 °FClear.1 mph88%29.96 "Hg7 mi
4:00 AM41 °FClear.1 mph84%29.96 "Hg9 mi
3:00 AM42 °FClear.No wind81%29.96 "Hg9 mi
1:00 AM48 °FClear.1 mph63%29.96 "Hg12 mi
12:00 AM51 °FClear.2 mph57%29.95 "Hg12 mi
11:00 PM
Fri, Apr 24
52 °FClear.2 mph53%29.95 "Hg14 mi
10:00 PM54 °FClear.3 mph50%29.93 "Hg14 mi
9:00 PM56 °FClear.2 mph46%29.93 "Hg17 mi
8:00 PM59 °FSunny.2 mph41%29.92 "Hg18 mi
7:00 PM63 °FSunny.2 mph35%29.90 "Hg14 mi
6:00 PM63 °FSunny.3 mph32%29.91 "Hg14 mi
5:00 PM63 °FSunny.5 mph36%29.92 "Hg13 mi
4:00 PM62 °FSunny.3 mph39%29.93 "Hg8 mi
3:00 PM63 °FSunny.3 mph43%29.95 "Hg12 mi
Weather by CustomWeather, © 2015

See weather overviewHow to use our weather pages